{"data":{"norad_id":60156,"intl_designator":"2024-120X","name":"STARLINK-32048","alt_names":[],"object_type":"PAYLOAD","status":"ACTIVE","operator":null,"country":"US","launch_date":"2024-06-27","launch_site_code":"AFETR","launch_vehicle":null,"mission":null,"orbit_class":"UNKNOWN","rcs_meters":null,"size_class":null,"mass_kg":null,"dimensions":null,"purposes":["comms"],"wikipedia_slug":null,"has_3d_model":false,"image_url":null,"decayed_at":null,"tle_current":{"epoch":"2026-05-24T23:07:53.762016Z","epoch_age_seconds":75487,"freshness":"FRESH","line1":"1 60156U 24120X   26144.96381669 -.00000044  00000+0  10638-4 0  9992","line2":"2 60156  53.1606 325.6677 0001273  88.6564 271.4583 15.30193718108059","mean_motion":15.30193718,"eccentricity":0.0001273,"inclination_deg":53.1606,"raan_deg":325.6677,"arg_perigee_deg":88.6564,"mean_anomaly_deg":271.4583,"bstar":1.0638e-5,"rev_number":10805,"period_min":94.105732043007,"perigee_km":474.36139229695,"apogee_km":476.10626050936,"semimajor_km":6853.3708264032,"source":"CELESTRAK","updated_at":"2026-05-25T13:38:19.192636Z"}}}